Ogden, UT

9:46 PM MST on February 12, 2016 (GMT -0700)
Ogden-Hinckley

Weather History for KOGD - September, 2012

Change the Weather History Date:

Thursday, September 20, 2012

  Actual Average Record
Temperature  
Mean Temperature 67 °F -  
Max Temperature 81 °F 76 °F 90 °F (1933)
Min Temperature 53 °F 45 °F 28 °F (1965)
Cooling Degree Days 2    
Growing Degree Days 17 (Base 50)    
Moisture  
Dew Point 28 °F    
Average Humidity 25    
Maximum Humidity 34    
Minimum Humidity 14    
Precipitation  
Precipitation 0.00 in - - ()
Sea Level Pressure  
Sea Level Pressure 30.07 in    
Wind  
Wind Speed 6 mph (SSW)    
Max Wind Speed 9 mph    
Max Gust Speed -    
Visibility 10 miles    
Events      
Averages and records for this station are not official NWS values.
T = Trace of Precipitation, MM = Missing Value Source: NWS Daily Summary

Daily Weather History Graph

Daily Weather History Graph

Search for Another Location

Airport or City:

Trip Planner

Search our weather history database for the weather conditions in past years. The results will help you decide how hot, cold, wet, or windy it might be!

Date:

Astronomy

Sep. 20, 2012 Rise Set
Actual Time 7:14 AM MDT 7:27 PM MDT
Civil Twilight 6:46 AM MDT 7:55 PM MDT
Nautical Twilight 6:14 AM MDT 8:27 PM MDT
Astronomical Twilight 5:41 AM MDT 9:00 PM MDT
Moon 12:39 PM MDT (9/20) 10:29 PM MDT (9/20)
Length of Visible Light 13h 08m
Length of Day
12h 13m
Waxing Crescent, 27% of the Moon is Illuminated
Sep 20
Waxing Crescent
Sep 22
First Quarter
Sep 29
Full
Oct 8
Last Quarter
Oct 15
New

Hourly Weather History & Observations

Time (MDT) Temp. Dew Point Humidity Pressure Visibility Wind Dir Wind Speed Gust Speed Precip Events Conditions
12:53 AM 59.0 °F 25.0 °F 27% 30.04 in 10.0 mi SSW 9.2 mph - N/A   Clear
1:53 AM 57.9 °F 24.1 °F 27% 30.04 in 10.0 mi South 9.2 mph - N/A   Clear
2:53 AM 57.0 °F 24.1 °F 28% 30.04 in 10.0 mi South 9.2 mph - N/A   Clear
3:53 AM 57.0 °F 24.1 °F 28% 30.04 in 10.0 mi South 6.9 mph - N/A   Clear
4:53 AM 55.0 °F 24.1 °F 30% 30.06 in 10.0 mi South 8.1 mph - N/A   Clear
5:53 AM 53.1 °F 24.1 °F 32% 30.07 in 10.0 mi South 6.9 mph - N/A   Clear
6:53 AM 53.6 °F 24.8 °F 33% 30.20 in 10.0 mi South 8.1 mph - N/A   Clear
7:53 AM 53.1 °F 24.1 °F 32% 30.10 in 10.0 mi South 4.6 mph - N/A   Clear
8:53 AM 57.0 °F 25.0 °F 29% 30.11 in 10.0 mi South 5.8 mph - N/A   Clear
9:53 AM 61.0 °F 26.1 °F 26% 30.12 in 10.0 mi Calm Calm - N/A   Clear
10:53 AM 68.0 °F 28.9 °F 23% 30.11 in 10.0 mi Calm Calm - N/A   Clear
11:53 AM 73.0 °F 28.9 °F 20% 30.10 in 10.0 mi NNW 4.6 mph - N/A   Clear
12:53 PM 75.9 °F 30.0 °F 19% 30.08 in 10.0 mi Calm Calm - N/A   Clear
1:53 PM 77.0 °F 28.9 °F 17% 30.07 in 10.0 mi Variable 3.5 mph - N/A   Clear
2:53 PM 79.0 °F 30.0 °F 17% 30.05 in 10.0 mi West 4.6 mph - N/A   Clear
3:53 PM 81.0 °F 30.0 °F 16% 30.03 in 10.0 mi NNW 5.8 mph - N/A   Clear
4:53 PM 80.1 °F 27.0 °F 14% 30.02 in 10.0 mi NW 6.9 mph - N/A   Clear
5:53 PM 79.0 °F 27.0 °F 15% 30.02 in 10.0 mi West 3.5 mph - N/A   Clear
6:53 PM 75.9 °F 28.9 °F 18% 30.02 in 10.0 mi Calm Calm - N/A   Clear
7:53 PM 70.0 °F 34.0 °F 27% 30.03 in 10.0 mi Calm Calm - N/A   Clear
8:53 PM 64.9 °F 36.0 °F 34% 30.05 in 10.0 mi South 4.6 mph - N/A   Clear
9:53 PM 62.6 °F 30.2 °F 30% 30.16 in 10.0 mi South 5.8 mph - N/A   Clear
10:53 PM 61.0 °F 28.0 °F 29% 30.04 in 10.0 mi South 8.1 mph - N/A   Clear
11:53 PM 61.0 °F 27.0 °F 27% 30.04 in 10.0 mi South 9.2 mph - N/A   Clear